• In Schweiz
  • Länderverzeichnis
  • Für 7 Tage
  • Wassertemperatur
  • Satellitenkarten
  • Wetterkarte
  • Widgets
  • user-avatar
    Anmelden

    Stündliche Wetter Sarnen

    Heute, 20 Februar, Dienstag

    Zeit Temperatur Niederschläge Wind Luftdruck Luftfeuchtigkeit
    00:00 -2°C° 0 mm 1 m/S 714 mmHg 83%
    01:00 -3°C° 0 mm 1 m/S 714 mmHg 80%
    02:00 -3°C° 0 mm 1 m/S 714 mmHg 80%
    03:00 -3°C° 0 mm 1 m/S 714 mmHg 80%
    04:00 -3°C° 0 mm 1 m/S 713 mmHg 79%
    05:00 -3°C° 0 mm 1 m/S 713 mmHg 80%
    06:00 -3°C° 0 mm 1 m/S 713 mmHg 81%
    07:00 -3°C° 0 mm 1 m/S 713 mmHg 82%
    08:00 -1°C° 0 mm 1 m/S 713 mmHg 81%
    09:00 0°C° 0 mm 1 m/S 713 mmHg 79%
    10:00 +2°C° 0 mm 1 m/S 713 mmHg 77%
    11:00 +3°C° 0 mm 1 m/S 713 mmHg 76%
    12:00 +2°C° 0 mm 2 m/S 712 mmHg 76%
    13:00 +3°C° 0 mm 2 m/S 712 mmHg 75%
    14:00 +3°C° 0,1 mm 2 m/S 712 mmHg 77%
    15:00 +2°C° 0,1 mm 2 m/S 712 mmHg 79%
    16:00 +2°C° 0,1 mm 2 m/S 712 mmHg 80%
    17:00 +1°C° 0,1 mm 2 m/S 712 mmHg 84%
    18:00 -1°C° 0,1 mm 2 m/S 713 mmHg 88%
    19:00 -2°C° 0,1 mm 2 m/S 713 mmHg 93%
    20:00 -3°C° 0 mm 2 m/S 713 mmHg 93%
    21:00 -4°C° 0 mm 2 m/S 713 mmHg 94%
    22:00 -5°C° 0 mm 2 m/S 714 mmHg 94%
    23:00 -5°C° 0 mm 2 m/S 714 mmHg 94%

    Morgen, 21 Februar, Mittwoch

    Zeit Temperatur Niederschläge Wind Luftdruck Luftfeuchtigkeit
    00:00 -4°C° 0 mm 1 m/S 714 mmHg 94%
    01:00 -4°C° 0 mm 1 m/S 714 mmHg 94%
    02:00 -4°C° 0 mm 1 m/S 714 mmHg 93%
    03:00 -6°C° 0 mm 2 m/S 714 mmHg 93%
    04:00 -6°C° 0 mm 2 m/S 714 mmHg 92%
    05:00 -6°C° 0 mm 2 m/S 714 mmHg 92%
    06:00 -6°C° 0 mm 2 m/S 714 mmHg 92%
    07:00 -6°C° 0 mm 2 m/S 714 mmHg 91%
    08:00 -5°C° 0 mm 2 m/S 714 mmHg 89%
    09:00 -3°C° 0 mm 2 m/S 714 mmHg 86%
    10:00 -2°C° 0 mm 3 m/S 714 mmHg 84%
    11:00 -1°C° 0 mm 3 m/S 714 mmHg 82%
    12:00 0°C° 0 mm 3 m/S 714 mmHg 81%
    13:00 +1°C° 0 mm 3 m/S 714 mmHg 79%
    14:00 0°C° 0,1 mm 3 m/S 713 mmHg 80%
    15:00 0°C° 0,1 mm 3 m/S 713 mmHg 81%
    16:00 0°C° 0,1 mm 3 m/S 713 mmHg 83%
    17:00 0°C° 0,1 mm 3 m/S 713 mmHg 86%
    18:00 -1°C° 0,1 mm 3 m/S 713 mmHg 89%
    19:00 -2°C° 0,1 mm 2 m/S 713 mmHg 92%
    20:00 -3°C° 0,1 mm 2 m/S 713 mmHg 92%
    21:00 -3°C° 0,1 mm 2 m/S 713 mmHg 92%
    22:00 -3°C° 0,1 mm 2 m/S 713 mmHg 93%
    23:00 -4°C° 0,1 mm 2 m/S 713 mmHg 93%

    übermorgen, 22 Februar, Donnerstag

    Zeit Temperatur Niederschläge Wind Luftdruck Luftfeuchtigkeit
    00:00 -4°C° 0,1 mm 2 m/S 713 mmHg 93%
    01:00 -4°C° 0,1 mm 2 m/S 713 mmHg 92%
    02:00 -4°C° 0,1 mm 2 m/S 712 mmHg 92%
    03:00 -5°C° 0,1 mm 2 m/S 712 mmHg 91%
    04:00 -5°C° 0,1 mm 2 m/S 711 mmHg 91%
    05:00 -5°C° 0,1 mm 2 m/S 711 mmHg 90%
    06:00 -5°C° 0,1 mm 2 m/S 711 mmHg 90%
    07:00 -5°C° 0,1 mm 2 m/S 711 mmHg 89%
    08:00 -4°C° 0 mm 2 m/S 711 mmHg 87%
    09:00 -3°C° 0 mm 2 m/S 711 mmHg 84%
    10:00 -2°C° 0 mm 2 m/S 711 mmHg 81%
    11:00 -1°C° 0 mm 2 m/S 711 mmHg 79%
    12:00 +1°C° 0 mm 2 m/S 711 mmHg 77%
    13:00 +1°C° 0 mm 3 m/S 711 mmHg 75%
    14:00 +2°C° 0 mm 2 m/S 710 mmHg 77%
    15:00 +2°C° 0 mm 2 m/S 710 mmHg 79%
    16:00 +2°C° 0 mm 2 m/S 710 mmHg 82%
    17:00 +1°C° 0,1 mm 2 m/S 710 mmHg 85%
    18:00 -1°C° 0,1 mm 2 m/S 711 mmHg 88%
    19:00 -2°C° 0,1 mm 2 m/S 711 mmHg 92%
    20:00 -2°C° 0,1 mm 2 m/S 711 mmHg 92%
    21:00 -2°C° 0,1 mm 2 m/S 711 mmHg 91%
    22:00 -3°C° 0,1 mm 2 m/S 711 mmHg 91%
    23:00 -3°C° 0 mm 2 m/S 711 mmHg 90%

    23 Februar, Freitag

    Zeit Temperatur Niederschläge Wind Luftdruck Luftfeuchtigkeit
    00:00 -3°C° 0 mm 2 m/S 711 mmHg 90%
    01:00 -3°C° 0 mm 2 m/S 711 mmHg 90%
    02:00 -3°C° 0 mm 2 m/S 711 mmHg 90%
    03:00 -3°C° 0 mm 2 m/S 711 mmHg 90%
    04:00 -3°C° 0 mm 2 m/S 711 mmHg 90%
    05:00 -3°C° 0 mm 2 m/S 711 mmHg 90%
    06:00 -2°C° 0 mm 1 m/S 712 mmHg 90%
    07:00 -2°C° 0 mm 1 m/S 712 mmHg 90%
    08:00 -2°C° 0 mm 2 m/S 712 mmHg 87%
    09:00 -1°C° 0 mm 2 m/S 712 mmHg 85%
    10:00 +1°C° 0 mm 2 m/S 713 mmHg 82%
    11:00 +2°C° 0 mm 2 m/S 713 mmHg 81%
    12:00 +3°C° 0 mm 2 m/S 713 mmHg 81%
    13:00 +2°C° 0 mm 3 m/S 713 mmHg 80%
    14:00 +2°C° 0 mm 3 m/S 712 mmHg 81%
    15:00 +2°C° 0 mm 3 m/S 712 mmHg 82%
    16:00 +2°C° 0 mm 3 m/S 712 mmHg 84%
    17:00 +2°C° 0 mm 2 m/S 713 mmHg 86%
    18:00 +1°C° 0 mm 2 m/S 713 mmHg 89%
    19:00 -2°C° 0 mm 2 m/S 713 mmHg 92%
    20:00 -2°C° 0 mm 2 m/S 714 mmHg 91%
    21:00 -3°C° 0 mm 2 m/S 714 mmHg 89%
    22:00 -3°C° 0 mm 2 m/S 714 mmHg 88%
    23:00 -3°C° 0 mm 2 m/S 714 mmHg 86%

    24 Februar, Samstag

    Zeit Temperatur Niederschläge Wind Luftdruck Luftfeuchtigkeit
    00:00 -3°C° 0 mm 2 m/S 714 mmHg 85%
    01:00 -3°C° 0 mm 2 m/S 714 mmHg 83%
    02:00 -4°C° 0 mm 2 m/S 714 mmHg 82%
    03:00 -4°C° 0 mm 2 m/S 714 mmHg 81%
    04:00 -4°C° 0 mm 2 m/S 714 mmHg 81%
    05:00 -4°C° 0 mm 2 m/S 714 mmHg 80%
    06:00 -4°C° 0 mm 2 m/S 714 mmHg 79%
    07:00 -2°C° 0 mm 1 m/S 714 mmHg 78%
    08:00 -2°C° 0 mm 2 m/S 714 mmHg 76%
    09:00 -1°C° 0 mm 2 m/S 714 mmHg 75%
    10:00 +2°C° 0 mm 2 m/S 714 mmHg 73%
    11:00 +2°C° 0 mm 2 m/S 713 mmHg 74%
    12:00 +3°C° 0 mm 2 m/S 713 mmHg 75%
    13:00 +3°C° 0 mm 3 m/S 713 mmHg 76%
    14:00 +3°C° 0 mm 3 m/S 713 mmHg 77%
    15:00 +2°C° 0 mm 3 m/S 712 mmHg 79%
    16:00 +2°C° 0 mm 3 m/S 712 mmHg 80%
    17:00 +1°C° 0 mm 3 m/S 712 mmHg 83%
    18:00 +1°C° 0 mm 2 m/S 712 mmHg 85%
    19:00 -2°C° 0 mm 2 m/S 712 mmHg 88%
    20:00 -2°C° 0 mm 2 m/S 713 mmHg 88%
    21:00 -3°C° 0 mm 2 m/S 713 mmHg 88%
    22:00 -3°C° 0 mm 2 m/S 713 mmHg 88%
    23:00 -3°C° 0 mm 2 m/S 713 mmHg 88%

    25 Februar, Sonntag

    Zeit Temperatur Niederschläge Wind Luftdruck Luftfeuchtigkeit
    00:00 -3°C° 0 mm 2 m/S 713 mmHg 88%
    01:00 -4°C° 0 mm 2 m/S 712 mmHg 88%
    02:00 -4°C° 0 mm 2 m/S 712 mmHg 88%
    03:00 -4°C° 0 mm 2 m/S 712 mmHg 88%
    04:00 -4°C° 0 mm 2 m/S 712 mmHg 88%
    05:00 -6°C° 0,1 mm 3 m/S 712 mmHg 88%
    06:00 -6°C° 0,1 mm 3 m/S 712 mmHg 88%
    07:00 -7°C° 0,1 mm 3 m/S 712 mmHg 89%
    08:00 -6°C° 0,1 mm 3 m/S 712 mmHg 86%
    09:00 -6°C° 0,1 mm 3 m/S 712 mmHg 84%
    10:00 -6°C° 0,1 mm 3 m/S 712 mmHg 81%
    11:00 -6°C° 0,1 mm 3 m/S 712 mmHg 79%
    12:00 -5°C° 0,1 mm 3 m/S 712 mmHg 77%
    13:00 -5°C° 0,1 mm 3 m/S 712 mmHg 74%
    14:00 -5°C° 0,1 mm 3 m/S 712 mmHg 75%
    15:00 -5°C° 0,1 mm 3 m/S 712 mmHg 75%
    16:00 -6°C° 0,1 mm 3 m/S 712 mmHg 76%
    17:00 -7°C° 0,1 mm 3 m/S 712 mmHg 78%
    18:00 -8°C° 0,1 mm 3 m/S 712 mmHg 80%
    19:00 -9°C° 0,1 mm 3 m/S 713 mmHg 83%
    20:00 -8°C° 0,1 mm 2 m/S 713 mmHg 83%
    21:00 -9°C° 0,1 mm 2 m/S 713 mmHg 84%
    22:00 -9°C° 0,1 mm 2 m/S 713 mmHg 84%
    23:00 -10°C° 0,1 mm 2 m/S 713 mmHg 84%
    Mehr zeigen